Tracking 28096 objects as of 28-Sep-2023
HD Live streaming from Space Station
objects crossing your sky now

STARLINK-4618

Track STARLINK-4618 now!
10-day predictions
STARLINK-4618 is classified as:


NORAD ID: 53735
Int'l Code: 2022-107AM
Perigee: 545.8 km
Apogee: 547.9 km
Inclination: 53.2 °
Period: 95.4 minutes
Semi major axis: 6917 km
RCS: Unknown
Launch date: September 5, 2022
Source: United States (US)
Launch site: AIR FORCE EASTERN TEST RANGE (AFETR)
Your satellite tracking list
Your tracking list is empty




NASA's NSSDC Master Catalog

Two Line Element Set (TLE):
1 53735U 22107AM  23270.43275308  .00002951  00000-0  20339-3 0  9998
2 53735  53.2171 318.4122 0001511  86.3717 273.7448 15.08846201 59447
Source of the keplerian elements: AFSPC